Time,TemperatureF,DewpointF,PressureIn,WindDirection,WindDirectionDegrees,WindSpeedMPH,WindSpeedGustMPH,Humidity,HourlyPrecipIn,Conditions,Clouds,dailyrainin,SoftwareType,DateUTC
2013-04-05 00:19:00,50.3,50.0,30.11,West,269,0.0,0.0,98,0.00,,,0.00,weatherlink.com 1.10,2013-04-05 07:19:00,
2013-04-05 00:49:00,50.3,50.0,30.12,West,269,0.0,0.0,98,0.00,,,0.00,weatherlink.com 1.10,2013-04-05 07:49:00,
2013-04-05 01:04:00,50.3,50.0,30.12,West,269,0.0,0.0,98,0.00,,,0.00,weatherlink.com 1.10,2013-04-05 08:04:00,
2013-04-05 01:49:00,50.4,50.0,30.12,West,269,0.0,0.0,98,0.00,,,0.00,weatherlink.com 1.10,2013-04-05 08:49:00,
2013-04-05 02:04:00,50.5,50.0,30.12,West,269,0.0,0.0,98,0.00,,,0.00,weatherlink.com 1.10,2013-04-05 09:04:00,
2013-04-05 02:19:00,50.5,50.0,30.12,West,269,0.0,0.0,98,0.00,,,0.00,weatherlink.com 1.10,2013-04-05 09:19:00,
2013-04-05 02:34:00,50.5,50.0,30.12,West,269,0.0,0.0,98,0.00,,,0.00,weatherlink.com 1.10,2013-04-05 09:34:00,
2013-04-05 02:49:00,50.5,50.0,30.11,West,269,0.0,0.0,98,0.00,,,0.00,weatherlink.com 1.10,2013-04-05 09:49:00,
2013-04-05 03:04:00,50.4,50.0,30.11,West,269,0.0,0.0,98,0.00,,,0.00,weatherlink.com 1.10,2013-04-05 10:04:00,
2013-04-05 03:19:00,50.3,50.0,30.11,West,269,0.0,0.0,98,0.00,,,0.00,weatherlink.com 1.10,2013-04-05 10:19:00,
2013-04-05 03:34:00,50.1,50.0,30.11,West,269,0.0,0.0,98,0.00,,,0.00,weatherlink.com 1.10,2013-04-05 10:34:00,
2013-04-05 04:04:00,50.0,50.0,30.11,West,269,0.0,0.0,98,0.00,,,0.00,weatherlink.com 1.10,2013-04-05 11:04:00,
2013-04-05 04:19:00,49.9,49.0,30.11,West,269,0.0,0.0,98,0.00,,,0.00,weatherlink.com 1.10,2013-04-05 11:19:00,
2013-04-05 04:49:00,49.9,49.0,30.12,West,269,0.0,0.0,98,0.00,,,0.00,weatherlink.com 1.10,2013-04-05 11:49:00,
2013-04-05 05:04:00,50.0,50.0,30.12,West,269,0.0,1.0,98,0.00,,,0.00,weatherlink.com 1.10,2013-04-05 12:04:00,
2013-04-05 05:34:00,50.1,50.0,30.11,West,269,0.0,0.0,98,0.00,,,0.00,weatherlink.com 1.10,2013-04-05 12:34:00,
2013-04-05 05:49:00,50.0,50.0,30.12,West,269,0.0,0.0,98,0.00,,,0.00,weatherlink.com 1.10,2013-04-05 12:49:00,
2013-04-05 06:04:00,50.0,50.0,30.12,West,269,0.0,0.0,98,0.00,,,0.00,weatherlink.com 1.10,2013-04-05 13:04:00,
2013-04-05 06:19:00,50.1,50.0,30.12,West,269,0.0,0.0,98,0.00,,,0.00,weatherlink.com 1.10,2013-04-05 13:19:00,
2013-04-05 06:49:00,49.9,49.0,30.12,West,269,0.0,0.0,98,0.00,,,0.00,weatherlink.com 1.10,2013-04-05 13:49:00,
2013-04-05 07:04:00,49.9,49.0,30.12,West,269,0.0,0.0,98,0.00,,,0.00,weatherlink.com 1.10,2013-04-05 14:04:00,
2013-04-05 07:19:00,50.0,50.0,30.12,West,269,0.0,0.0,98,0.00,,,0.00,weatherlink.com 1.10,2013-04-05 14:19:00,
2013-04-05 08:04:00,50.3,50.0,30.14,West,269,0.0,0.0,98,0.00,,,0.00,weatherlink.com 1.10,2013-04-05 15:04:00,
2013-04-05 08:19:00,50.4,50.0,30.14,West,269,0.0,0.0,98,0.00,,,0.00,weatherlink.com 1.10,2013-04-05 15:19:00,
2013-04-05 08:34:00,50.6,50.0,30.14,West,269,0.0,0.0,98,0.00,,,0.00,weatherlink.com 1.10,2013-04-05 15:34:00,
2013-04-05 08:49:00,51.2,51.0,30.15,West,269,0.0,0.0,98,0.00,,,0.00,weatherlink.com 1.10,2013-04-05 15:49:00,
2013-04-05 09:04:00,51.7,51.0,30.15,West,269,0.0,0.0,98,0.00,,,0.00,weatherlink.com 1.10,2013-04-05 16:04:00,
2013-04-05 09:19:00,52.1,52.0,30.14,SSW,210,0.0,2.0,98,0.00,,,0.00,weatherlink.com 1.10,2013-04-05 16:19:00,
2013-04-05 09:34:00,52.7,52.0,30.14,SSW,210,0.0,0.0,98,0.00,,,0.00,weatherlink.com 1.10,2013-04-05 16:34:00,
2013-04-05 09:49:00,53.1,53.0,30.14,SSW,210,0.0,0.0,98,0.00,,,0.00,weatherlink.com 1.10,2013-04-05 16:49:00,
2013-04-05 10:04:00,53.3,53.0,30.14,West,273,0.0,3.0,97,0.00,,,0.00,weatherlink.com 1.10,2013-04-05 17:04:00,
2013-04-05 10:19:00,54.4,53.0,30.14,West,273,0.0,1.0,96,0.00,,,0.00,weatherlink.com 1.10,2013-04-05 17:19:00,
2013-04-05 10:34:00,54.5,53.0,30.15,West,273,0.0,0.0,95,0.00,,,0.00,weatherlink.com 1.10,2013-04-05 17:34:00,
2013-04-05 10:49:00,55.2,54.0,30.15,West,273,0.0,0.0,96,0.00,,,0.00,weatherlink.com 1.10,2013-04-05 17:49:00,
2013-04-05 11:05:00,55.6,54.0,30.15,West,273,0.0,0.0,95,0.00,,,0.00,weatherlink.com 1.10,2013-04-05 18:05:00,
2013-04-05 11:19:00,55.6,54.0,30.16,West,273,0.0,0.0,94,0.00,,,0.00,weatherlink.com 1.10,2013-04-05 18:19:00,
2013-04-05 11:34:00,56.4,55.0,30.15,West,262,0.0,0.0,93,0.00,,,0.00,weatherlink.com 1.10,2013-04-05 18:34:00,
2013-04-05 11:49:00,57.3,55.0,30.16,SW,219,0.0,2.0,92,0.00,,,0.00,weatherlink.com 1.10,2013-04-05 18:49:00,
2013-04-05 12:05:00,60.3,56.0,30.15,NNW,328,1.0,2.0,85,0.00,,,0.00,weatherlink.com 1.10,2013-04-05 19:05:00,
2013-04-05 12:20:00,60.9,57.0,30.15,WNW,294,1.0,2.0,87,0.00,,,0.00,weatherlink.com 1.10,2013-04-05 19:20:00,
2013-04-05 12:35:00,59.9,55.0,30.16,NW,312,0.0,0.0,85,0.00,,,0.00,weatherlink.com 1.10,2013-04-05 19:35:00,
2013-04-05 12:50:00,59.3,55.0,30.16,WNW,288,1.0,1.0,86,0.00,,,0.00,weatherlink.com 1.10,2013-04-05 19:50:00,
2013-04-05 13:05:00,59.7,54.0,30.16,West,264,0.0,2.0,82,0.00,,,0.00,weatherlink.com 1.10,2013-04-05 20:05:00,
2013-04-05 13:20:00,60.3,53.0,30.14,North,10,0.0,3.0,77,0.00,,,0.00,weatherlink.com 1.10,2013-04-05 20:20:00,
2013-04-05 13:35:00,60.7,51.0,30.13,NW,321,1.0,4.0,70,0.00,,,0.00,weatherlink.com 1.10,2013-04-05 20:35:00,
2013-04-05 13:50:00,60.9,52.0,30.11,WNW,302,1.0,2.0,72,0.00,,,0.00,weatherlink.com 1.10,2013-04-05 20:50:00,
2013-04-05 14:05:00,61.5,51.0,30.11,SW,232,1.0,3.0,68,0.00,,,0.00,weatherlink.com 1.10,2013-04-05 21:05:00,
2013-04-05 14:20:00,62.5,53.0,30.11,SW,235,1.0,5.0,72,0.00,,,0.00,weatherlink.com 1.10,2013-04-05 21:20:00,
2013-04-05 14:50:00,63.1,51.0,30.12,NW,307,1.0,4.0,65,0.00,,,0.00,weatherlink.com 1.10,2013-04-05 21:50:00,
2013-04-05 15:05:00,63.1,50.0,30.11,NNW,341,2.0,6.0,62,0.00,,,0.00,weatherlink.com 1.10,2013-04-05 22:05:00,
2013-04-05 15:20:00,63.0,52.0,30.11,NW,319,2.0,3.0,67,0.00,,,0.00,weatherlink.com 1.10,2013-04-05 22:20:00,
2013-04-05 15:35:00,62.7,51.0,30.11,NW,320,2.0,6.0,65,0.00,,,0.00,weatherlink.com 1.10,2013-04-05 22:35:00,
2013-04-05 15:50:00,62.0,53.0,30.10,ENE,75,0.0,2.0,73,0.00,,,0.00,weatherlink.com 1.10,2013-04-05 22:50:00,
2013-04-05 16:05:00,61.8,53.0,30.10,NW,326,1.0,4.0,74,0.00,,,0.00,weatherlink.com 1.10,2013-04-05 23:05:00,
2013-04-05 16:20:00,61.4,53.0,30.11,NNE,12,1.0,2.0,75,0.00,,,0.00,weatherlink.com 1.10,2013-04-05 23:20:00,
2013-04-05 16:35:00,61.2,53.0,30.11,ENE,65,2.0,2.0,75,0.00,,,0.00,weatherlink.com 1.10,2013-04-05 23:35:00,
2013-04-05 16:50:00,61.0,53.0,30.10,ENE,65,0.0,0.0,76,0.00,,,0.00,weatherlink.com 1.10,2013-04-05 23:50:00,
2013-04-05 17:05:00,60.8,54.0,30.09,ENE,65,0.0,1.0,78,0.00,,,0.00,weatherlink.com 1.10,2013-04-06 00:05:00,
2013-04-05 17:20:00,60.4,53.0,30.10,ENE,65,0.0,0.0,77,0.00,,,0.00,weatherlink.com 1.10,2013-04-06 00:20:00,
2013-04-05 17:35:00,60.2,55.0,30.11,ENE,65,0.0,0.0,82,0.00,,,0.00,weatherlink.com 1.10,2013-04-06 00:35:00,
2013-04-05 17:50:00,59.6,53.0,30.11,ENE,65,0.0,1.0,78,0.00,,,0.00,weatherlink.com 1.10,2013-04-06 00:50:00,
2013-04-05 18:05:00,59.4,54.0,30.11,ENE,65,0.0,1.0,81,0.00,,,0.00,weatherlink.com 1.10,2013-04-06 01:05:00,
2013-04-05 18:20:00,59.2,52.0,30.11,SE,144,1.0,4.0,77,0.00,,,0.00,weatherlink.com 1.10,2013-04-06 01:20:00,
2013-04-05 18:35:00,58.9,52.0,30.11,NE,46,0.0,1.0,78,0.00,,,0.00,weatherlink.com 1.10,2013-04-06 01:35:00,
2013-04-05 18:50:00,58.3,51.0,30.11,WSW,243,1.0,3.0,78,0.00,,,0.00,weatherlink.com 1.10,2013-04-06 01:50:00,
2013-04-05 19:05:00,57.7,51.0,30.11,West,273,0.0,2.0,78,0.00,,,0.00,weatherlink.com 1.10,2013-04-06 02:05:00,
2013-04-05 19:20:00,57.1,51.0,30.10,West,267,0.0,1.0,80,0.00,,,0.00,weatherlink.com 1.10,2013-04-06 02:20:00,
2013-04-05 19:35:00,56.3,51.0,30.10,West,270,0.0,2.0,82,0.00,,,0.00,weatherlink.com 1.10,2013-04-06 02:35:00,
2013-04-05 19:50:00,55.5,51.0,30.11,West,270,0.0,0.0,84,0.00,,,0.00,weatherlink.com 1.10,2013-04-06 02:50:00,
2013-04-05 20:05:00,54.6,50.0,30.12,West,270,0.0,1.0,85,0.00,,,0.00,weatherlink.com 1.10,2013-04-06 03:05:00,
2013-04-05 20:35:00,53.1,49.0,30.13,West,269,3.0,3.0,87,0.00,,,0.00,weatherlink.com 1.10,2013-04-06 03:35:00,
2013-04-05 20:50:00,52.8,49.0,30.13,West,266,0.0,1.0,88,0.00,,,0.00,weatherlink.com 1.10,2013-04-06 03:50:00,
2013-04-05 21:05:00,52.1,49.0,30.14,West,266,0.0,0.0,89,0.00,,,0.00,weatherlink.com 1.10,2013-04-06 04:05:00,
2013-04-05 21:35:00,51.1,48.0,30.15,NW,305,0.0,2.0,90,0.00,,,0.00,weatherlink.com 1.10,2013-04-06 04:35:00,
2013-04-05 21:50:00,50.8,48.0,30.15,NW,305,0.0,1.0,91,0.00,,,0.00,weatherlink.com 1.10,2013-04-06 04:50:00,
2013-04-05 22:05:00,50.1,48.0,30.15,NW,304,0.0,0.0,91,0.00,,,0.00,weatherlink.com 1.10,2013-04-06 05:05:00,
2013-04-05 22:20:00,49.7,48.0,30.16,NW,305,0.0,0.0,92,0.00,,,0.00,weatherlink.com 1.10,2013-04-06 05:20:00,
2013-04-05 22:35:00,49.3,47.0,30.16,NW,304,0.0,0.0,92,0.00,,,0.00,weatherlink.com 1.10,2013-04-06 05:35:00,
2013-04-05 22:50:00,48.8,47.0,30.16,North,4,0.0,1.0,93,0.00,,,0.00,weatherlink.com 1.10,2013-04-06 05:50:00,
2013-04-05 23:05:00,48.4,47.0,30.16,North,4,0.0,0.0,93,0.00,,,0.00,weatherlink.com 1.10,2013-04-06 06:05:00,
2013-04-05 23:20:00,48.0,46.0,30.16,North,4,0.0,0.0,93,0.00,,,0.00,weatherlink.com 1.10,2013-04-06 06:20:00,
2013-04-05 23:35:00,47.6,46.0,30.16,North,4,0.0,0.0,94,0.00,,,0.00,weatherlink.com 1.10,2013-04-06 06:35:00,
2013-04-05 23:50:00,47.2,46.0,30.16,North,4,0.0,0.0,94,0.00,,,0.00,weatherlink.com 1.10,2013-04-06 06:50:00,